Location: Boiro
(42.6475°N, 8.8834°W)
Time: 23:00:15
(UTC+01:00)

A-11 Canister half - Pass Details

Date: 30 November 2021
Orbit: 1516 x 1684 km, 47.2° (Epoch: 18 January)

Event Time Altitude Azimuth Distance (km) Brightness Sun altitude
Rises 15:56:39 0° 296° (WNW) 4,919 11.8 16.7°
Reaches altitude 10° 15:59:52 10° 292° (WNW) 3,940 11.4 16.3°
Maximum altitude 16:09:37 54° 219° (SW) 1,971 10.6 15.2°
Drops below altitude 10° 16:19:19 10° 146° (SE) 3,915 11.4 14.0°
Sets 16:22:32 0° 142° (SE) 4,886 11.8 13.6°
